contact:dominique.lefevre@mio.osupytheas.fr, maurice.libes@osupytheas.fr, didier.mallarino@osupytheas.fr
Project:EMSO http://www.emso-fr.org/EMSO-France
Depth: 2436.0 m
Title:EMSO Ligure Ouest : Data MII capteur MICROCAT
DateTime_Computer,Latitude,Longitude,Temperature,Conductivity,Pressure,DateTime_Instrument
DateTime_Computer,Latitude,Longitude,degC,S m-1,dbar,DateTime_Instrument
2020-02-02T00:01:47Z,42.805,6.029,13.2959,4.59960,2470.017,2020-2-02T02:02:21Z
2020-02-02T00:04:50Z,42.805,6.029,13.2958,4.59961,2469.993,2020-2-02T02:05:24Z
2020-02-02T00:07:53Z,42.805,6.029,13.2959,4.59960,2470.03,2020-2-02T02:08:27Z
2020-02-02T00:10:56Z,42.805,6.029,13.2957,4.59961,2470.03,2020-2-02T02:11:30Z
2020-02-02T00:14:00Z,42.805,6.029,13.2956,4.59961,2469.993,2020-2-02T02:14:33Z
2020-02-02T00:17:03Z,42.805,6.029,13.2958,4.59960,2470.017,2020-2-02T02:17:37Z
2020-02-02T00:20:06Z,42.805,6.029,13.2958,4.59960,2470.017,2020-2-02T02:20:40Z
2020-02-02T00:23:09Z,42.805,6.029,13.2960,4.59960,2470.03,2020-2-02T02:23:43Z
2020-02-02T00:26:12Z,42.805,6.029,13.2961,4.59960,2470.03,2020-2-02T02:26:46Z
2020-02-02T00:29:16Z,42.805,6.029,13.2960,4.59960,2469.97,2020-2-02T02:29:49Z
2020-02-02T00:32:19Z,42.805,6.029,13.2959,4.59960,2469.97,2020-2-02T02:32:53Z
2020-02-02T00:35:22Z,42.805,6.029,13.2960,4.59960,2470.007,2020-2-02T02:35:56Z
2020-02-02T00:38:25Z,42.805,6.029,13.2959,4.59961,2470.03,2020-2-02T02:38:59Z
2020-02-02T00:41:28Z,42.805,6.029,13.2958,4.59960,2470.03,2020-2-02T02:42:02Z
2020-02-02T00:44:32Z,42.805,6.029,13.2958,4.59961,2470.04,2020-2-02T02:45:05Z
2020-02-02T00:47:35Z,42.805,6.029,13.2960,4.59961,2470.03,2020-2-02T02:48:09Z
2020-02-02T00:50:38Z,42.805,6.029,13.2961,4.59960,2470.03,2020-2-02T02:51:12Z
2020-02-02T00:53:41Z,42.805,6.029,13.2958,4.59961,2470.003,2020-2-02T02:54:15Z
2020-02-02T00:56:44Z,42.805,6.029,13.2957,4.59959,2470.007,2020-2-02T02:57:18Z
2020-02-02T00:59:48Z,42.805,6.029,13.2958,4.59959,2470.03,2020-2-02T03:00:21Z
2020-02-02T01:02:51Z,42.805,6.029,13.2957,4.59959,2470.04,2020-2-02T03:03:25Z
2020-02-02T01:05:54Z,42.805,6.029,13.2963,4.59959,2470.017,2020-2-02T03:06:28Z
2020-02-02T01:08:57Z,42.805,6.029,13.2959,4.59961,2470.007,2020-2-02T03:09:31Z
2020-02-02T01:12:00Z,42.805,6.029,13.2960,4.59961,2469.993,2020-2-02T03:12:34Z
2020-02-02T01:15:03Z,42.805,6.029,13.2957,4.59961,2469.993,2020-2-02T03:15:37Z
2020-02-02T01:18:07Z,42.805,6.029,13.2956,4.59959,2470.053,2020-2-02T03:18:41Z
2020-02-02T01:21:10Z,42.805,6.029,13.2961,4.59959,2469.993,2020-2-02T03:21:44Z
2020-02-02T01:24:13Z,42.805,6.029,13.2961,4.59959,2470.03,2020-2-02T03:24:47Z
2020-02-02T01:27:16Z,42.805,6.029,13.2958,4.59958,2470.017,2020-2-02T03:27:50Z
2020-02-02T01:30:19Z,42.805,6.029,13.2958,4.59960,2470.007,2020-2-02T03:30:53Z
2020-02-02T01:33:23Z,42.805,6.029,13.2957,4.59960,2470.017,2020-2-02T03:33:57Z
2020-02-02T01:36:26Z,42.805,6.029,13.2957,4.59960,2470.04,2020-2-02T03:37:00Z
2020-02-02T01:39:29Z,42.805,6.029,13.2955,4.59961,2469.993,2020-2-02T03:40:03Z
2020-02-02T01:42:32Z,42.805,6.029,13.2961,4.59960,2469.993,2020-2-02T03:43:06Z
2020-02-02T01:45:35Z,42.805,6.029,13.2958,4.59961,2469.993,2020-2-02T03:46:09Z
2020-02-02T01:48:39Z,42.805,6.029,13.2961,4.59960,2469.984,2020-2-02T03:49:12Z
2020-02-02T01:51:42Z,42.805,6.029,13.2960,4.59961,2469.993,2020-2-02T03:52:16Z
2020-02-02T01:54:45Z,42.805,6.029,13.2958,4.59960,2469.993,2020-2-02T03:55:19Z
2020-02-02T01:57:48Z,42.805,6.029,13.2958,4.59961,2469.97,2020-2-02T03:58:22Z
2020-02-02T02:00:51Z,42.805,6.029,13.2959,4.59959,2469.993,2020-2-02T04:01:25Z
2020-02-02T02:03:55Z,42.805,6.029,13.2961,4.59960,2469.993,2020-2-02T04:04:28Z
2020-02-02T02:06:58Z,42.805,6.029,13.2961,4.59960,2470.007,2020-2-02T04:07:32Z
2020-02-02T02:10:01Z,42.805,6.029,13.2961,4.59961,2470.007,2020-2-02T04:10:35Z
2020-02-02T02:13:04Z,42.805,6.029,13.2957,4.59960,2470.017,2020-2-02T04:13:38Z
2020-02-02T02:16:07Z,42.805,6.029,13.2959,4.59960,2470.017,2020-2-02T04:16:41Z
2020-02-02T02:19:10Z,42.805,6.029,13.2958,4.59960,2469.97,2020-2-02T04:19:44Z
2020-02-02T02:22:14Z,42.805,6.029,13.2962,4.59961,2469.993,2020-2-02T04:22:48Z
2020-02-02T02:25:17Z,42.805,6.029,13.2959,4.59959,2469.97,2020-2-02T04:25:51Z
2020-02-02T02:28:20Z,42.805,6.029,13.2960,4.59959,2470.007,2020-2-02T04:28:54Z
2020-02-02T02:31:23Z,42.805,6.029,13.2960,4.59960,2470.053,2020-2-02T04:31:57Z
2020-02-02T02:34:26Z,42.805,6.029,13.2957,4.59960,2469.993,2020-2-02T04:35:00Z
2020-02-02T02:37:30Z,42.805,6.029,13.2958,4.59959,2469.993,2020-2-02T04:38:04Z
2020-02-02T02:40:33Z,42.805,6.029,13.2957,4.59961,2469.993,2020-2-02T04:41:07Z
2020-02-02T02:43:36Z,42.805,6.029,13.2960,4.59959,2470.007,2020-2-02T04:44:10Z
2020-02-02T02:46:39Z,42.805,6.029,13.2959,4.59960,2470.03,2020-2-02T04:47:13Z
2020-02-02T02:49:42Z,42.805,6.029,13.2960,4.59960,2470.017,2020-2-02T04:50:16Z
2020-02-02T02:52:46Z,42.805,6.029,13.2960,4.59959,2469.97,2020-2-02T04:53:19Z
2020-02-02T02:55:49Z,42.805,6.029,13.2961,4.59961,2469.984,2020-2-02T04:56:23Z
2020-02-02T02:58:52Z,42.805,6.029,13.2956,4.59959,2469.993,2020-2-02T04:59:26Z
2020-02-02T03:01:55Z,42.805,6.029,13.2962,4.59961,2469.97,2020-2-02T05:02:29Z
2020-02-02T03:04:58Z,42.805,6.029,13.2960,4.59960,2469.97,2020-2-02T05:05:32Z
2020-02-02T03:08:02Z,42.805,6.029,13.2961,4.59961,2470.007,2020-2-02T05:08:36Z
2020-02-02T03:11:05Z,42.805,6.029,13.2960,4.59961,2469.993,2020-2-02T05:11:39Z
2020-02-02T03:14:08Z,42.805,6.029,13.2959,4.59962,2469.984,2020-2-02T05:14:42Z
2020-02-02T03:17:11Z,42.805,6.029,13.2963,4.59960,2470.007,2020-2-02T05:17:45Z
2020-02-02T03:20:14Z,42.805,6.029,13.2957,4.59959,2469.97,2020-2-02T05:20:48Z
2020-02-02T03:23:18Z,42.805,6.029,13.2960,4.59961,2469.993,2020-2-02T05:23:51Z
2020-02-02T03:26:21Z,42.805,6.029,13.2961,4.59960,2470.03,2020-2-02T05:26:55Z
2020-02-02T03:29:24Z,42.805,6.029,13.2960,4.59960,2469.993,2020-2-02T05:29:58Z
2020-02-02T03:32:27Z,42.805,6.029,13.2958,4.59960,2469.984,2020-2-02T05:33:01Z
2020-02-02T03:35:30Z,42.805,6.029,13.2959,4.59961,2469.97,2020-2-02T05:36:04Z
2020-02-02T03:38:34Z,42.805,6.029,13.2957,4.59961,2469.993,2020-2-02T05:39:07Z
2020-02-02T03:41:37Z,42.805,6.029,13.2959,4.59961,2470.007,2020-2-02T05:42:11Z
2020-02-02T03:44:40Z,42.805,6.029,13.2963,4.59961,2470.017,2020-2-02T05:45:14Z
2020-02-02T03:47:43Z,42.805,6.029,13.2960,4.59961,2470.007,2020-2-02T05:48:17Z
2020-02-02T03:50:47Z,42.805,6.029,13.2958,4.59961,2469.97,2020-2-02T05:51:20Z
2020-02-02T03:53:50Z,42.805,6.029,13.2961,4.59961,2470.017,2020-2-02T05:54:24Z
2020-02-02T03:56:53Z,42.805,6.029,13.2959,4.59961,2469.937,2020-2-02T05:57:27Z
2020-02-02T03:59:56Z,42.805,6.029,13.2960,4.59961,2469.97,2020-2-02T06:00:30Z
2020-02-02T04:02:59Z,42.805,6.029,13.2961,4.59961,2469.993,2020-2-02T06:03:33Z
2020-02-02T04:06:03Z,42.805,6.029,13.2961,4.59961,2469.984,2020-2-02T06:06:36Z
2020-02-02T04:09:06Z,42.805,6.029,13.2961,4.59961,2469.97,2020-2-02T06:09:40Z
2020-02-02T04:12:09Z,42.805,6.029,13.2959,4.59961,2470.007,2020-2-02T06:12:43Z
2020-02-02T04:15:12Z,42.805,6.029,13.2959,4.59961,2469.97,2020-2-02T06:15:46Z
2020-02-02T04:18:15Z,42.805,6.029,13.2961,4.59960,2469.984,2020-2-02T06:18:49Z
2020-02-02T04:21:19Z,42.805,6.029,13.2963,4.59961,2469.993,2020-2-02T06:21:52Z
2020-02-02T04:24:22Z,42.805,6.029,13.2964,4.59960,2469.97,2020-2-02T06:24:56Z
2020-02-02T04:27:25Z,42.805,6.029,13.2958,4.59960,2469.984,2020-2-02T06:27:59Z
2020-02-02T04:30:28Z,42.805,6.029,13.2961,4.59961,2469.993,2020-2-02T06:31:02Z
2020-02-02T04:33:31Z,42.805,6.029,13.2965,4.59963,2469.984,2020-2-02T06:34:05Z
2020-02-02T04:36:35Z,42.805,6.029,13.2960,4.59961,2469.984,2020-2-02T06:37:09Z
2020-02-02T04:39:38Z,42.805,6.029,13.2961,4.59962,2469.97,2020-2-02T06:40:12Z
2020-02-02T04:42:41Z,42.805,6.029,13.2965,4.59961,2469.923,2020-2-02T06:43:15Z
2020-02-02T04:45:44Z,42.805,6.029,13.2960,4.59961,2469.984,2020-2-02T06:46:18Z
2020-02-02T04:48:47Z,42.805,6.029,13.2958,4.59962,2469.993,2020-2-02T06:49:21Z
2020-02-02T04:51:51Z,42.805,6.029,13.2961,4.59961,2469.947,2020-2-02T06:52:24Z
2020-02-02T04:54:54Z,42.805,6.029,13.2958,4.59960,2469.947,2020-2-02T06:55:28Z
2020-02-02T04:57:57Z,42.805,6.029,13.2961,4.59961,2469.947,2020-2-02T06:58:31Z
2020-02-02T05:01:00Z,42.805,6.029,13.2964,4.59959,2469.984,2020-2-02T07:01:34Z
2020-02-02T05:04:03Z,42.805,6.029,13.2959,4.59960,2469.984,2020-2-02T07:04:37Z
2020-02-02T05:07:07Z,42.805,6.029,13.2961,4.59961,2469.947,2020-2-02T07:07:40Z
2020-02-02T05:10:10Z,42.805,6.029,13.2958,4.59961,2469.9,2020-2-02T07:10:44Z
2020-02-02T05:13:13Z,42.805,6.029,13.2961,4.59961,2469.947,2020-2-02T07:13:47Z
2020-02-02T05:16:16Z,42.805,6.029,13.2965,4.59961,2469.947,2020-2-02T07:16:50Z
2020-02-02T05:19:19Z,42.805,6.029,13.2957,4.59961,2469.947,2020-2-02T07:19:53Z
2020-02-02T05:22:23Z,42.805,6.029,13.2967,4.59961,2469.947,2020-2-02T07:22:56Z
2020-02-02T05:25:26Z,42.805,6.029,13.2961,4.59960,2469.947,2020-2-02T07:26:00Z
2020-02-02T05:28:29Z,42.805,6.029,13.2960,4.59961,2469.984,2020-2-02T07:29:03Z
2020-02-02T05:31:32Z,42.805,6.029,13.2958,4.59960,2469.984,2020-2-02T07:32:06Z
2020-02-02T05:34:35Z,42.805,6.029,13.2960,4.59961,2469.993,2020-2-02T07:35:09Z
2020-02-02T05:37:38Z,42.805,6.029,13.2963,4.59960,2469.947,2020-2-02T07:38:12Z
2020-02-02T05:40:42Z,42.805,6.029,13.2961,4.59961,2470.007,2020-2-02T07:41:16Z
2020-02-02T05:43:45Z,42.805,6.029,13.2958,4.59961,2469.97,2020-2-02T07:44:19Z
2020-02-02T05:46:48Z,42.805,6.029,13.2961,4.59961,2469.97,2020-2-02T07:47:22Z
2020-02-02T05:49:51Z,42.805,6.029,13.2958,4.59960,2469.96,2020-2-02T07:50:25Z
2020-02-02T05:52:55Z,42.805,6.029,13.2955,4.59959,2469.947,2020-2-02T07:53:28Z
2020-02-02T05:55:58Z,42.805,6.029,13.2958,4.59961,2469.96,2020-2-02T07:56:32Z
2020-02-02T05:59:01Z,42.805,6.029,13.2960,4.59961,2469.97,2020-2-02T07:59:35Z
2020-02-02T06:02:04Z,42.805,6.029,13.2957,4.59961,2469.96,2020-2-02T08:02:38Z
2020-02-02T06:05:07Z,42.805,6.029,13.2963,4.59961,2469.97,2020-2-02T08:05:41Z
2020-02-02T06:08:10Z,42.805,6.029,13.2962,4.59961,2469.984,2020-2-02T08:08:44Z
2020-02-02T06:11:14Z,42.805,6.029,13.2958,4.59961,2469.96,2020-2-02T08:11:48Z
2020-02-02T06:14:17Z,42.805,6.029,13.2958,4.59961,2469.947,2020-2-02T08:14:51Z
2020-02-02T06:17:20Z,42.805,6.029,13.2960,4.59959,2469.96,2020-2-02T08:17:54Z
2020-02-02T06:20:23Z,42.805,6.029,13.2958,4.59961,2469.947,2020-2-02T08:20:57Z
2020-02-02T06:23:27Z,42.805,6.029,13.2961,4.59959,2469.947,2020-2-02T08:24:00Z
2020-02-02T06:26:30Z,42.805,6.029,13.2954,4.59960,2469.96,2020-2-02T08:27:04Z
2020-02-02T06:29:33Z,42.805,6.029,13.2961,4.59960,2469.97,2020-2-02T08:30:07Z
2020-02-02T06:32:36Z,42.805,6.029,13.2962,4.59960,2469.97,2020-2-02T08:33:10Z
2020-02-02T06:35:39Z,42.805,6.029,13.2961,4.59960,2469.947,2020-2-02T08:36:13Z
2020-02-02T06:38:43Z,42.805,6.029,13.2960,4.59960,2469.97,2020-2-02T08:39:16Z
2020-02-02T06:41:46Z,42.805,6.029,13.2960,4.59958,2469.96,2020-2-02T08:42:20Z
2020-02-02T06:44:49Z,42.805,6.029,13.2959,4.59961,2469.947,2020-2-02T08:45:23Z
2020-02-02T06:47:52Z,42.805,6.029,13.2961,4.59958,2469.97,2020-2-02T08:48:26Z
2020-02-02T06:50:55Z,42.805,6.029,13.2960,4.59960,2469.984,2020-2-02T08:51:29Z
2020-02-02T06:53:59Z,42.805,6.029,13.2961,4.59960,2469.984,2020-2-02T08:54:32Z
2020-02-02T06:57:02Z,42.805,6.029,13.2957,4.59961,2469.97,2020-2-02T08:57:36Z
2020-02-02T07:00:05Z,42.805,6.029,13.2958,4.59960,2469.97,2020-2-02T09:00:39Z
2020-02-02T07:03:08Z,42.805,6.029,13.2959,4.59961,2469.947,2020-2-02T09:03:42Z
2020-02-02T07:06:11Z,42.805,6.029,13.2961,4.59961,2469.933,2020-2-02T09:06:45Z
2020-02-02T07:09:15Z,42.805,6.029,13.2963,4.59959,2469.97,2020-2-02T09:09:48Z
2020-02-02T07:12:18Z,42.805,6.029,13.2957,4.59961,2469.96,2020-2-02T09:12:52Z
2020-02-02T07:15:21Z,42.805,6.029,13.2959,4.59960,2469.947,2020-2-02T09:15:55Z
2020-02-02T07:18:24Z,42.805,6.029,13.2958,4.59961,2469.947,2020-2-02T09:18:58Z
2020-02-02T07:21:27Z,42.805,6.029,13.2957,4.59960,2469.97,2020-2-02T09:22:01Z
2020-02-02T07:24:31Z,42.805,6.029,13.2964,4.59960,2469.97,2020-2-02T09:25:04Z
2020-02-02T07:27:34Z,42.805,6.029,13.2958,4.59960,2469.97,2020-2-02T09:28:08Z
2020-02-02T07:30:37Z,42.805,6.029,13.2964,4.59961,2469.984,2020-2-02T09:31:11Z
2020-02-02T07:33:40Z,42.805,6.029,13.2957,4.59960,2469.923,2020-2-02T09:34:14Z
2020-02-02T07:36:43Z,42.805,6.029,13.2959,4.59960,2470.007,2020-2-02T09:37:17Z
2020-02-02T07:39:47Z,42.805,6.029,13.2959,4.59960,2469.97,2020-2-02T09:40:20Z
2020-02-02T07:42:50Z,42.805,6.029,13.2961,4.59960,2469.947,2020-2-02T09:43:24Z
2020-02-02T07:45:53Z,42.805,6.029,13.2958,4.59960,2469.97,2020-2-02T09:46:27Z
2020-02-02T07:48:56Z,42.805,6.029,13.2961,4.59960,2469.993,2020-2-02T09:49:30Z
2020-02-02T07:51:59Z,42.805,6.029,13.2959,4.59959,2469.993,2020-2-02T09:52:33Z
2020-02-02T07:55:02Z,42.805,6.029,13.2961,4.59961,2469.984,2020-2-02T09:55:36Z
2020-02-02T07:58:06Z,42.805,6.029,13.2962,4.59961,2469.984,2020-2-02T09:58:40Z
2020-02-02T08:01:09Z,42.805,6.029,13.2958,4.59960,2469.97,2020-2-02T10:01:43Z
2020-02-02T08:04:12Z,42.805,6.029,13.2955,4.59961,2469.97,2020-2-02T10:04:46Z
2020-02-02T08:07:15Z,42.805,6.029,13.2959,4.59961,2469.97,2020-2-02T10:07:49Z
2020-02-02T08:10:18Z,42.805,6.029,13.2962,4.59959,2469.97,2020-2-02T10:10:52Z
2020-02-02T08:13:22Z,42.805,6.029,13.2959,4.59959,2469.993,2020-2-02T10:13:55Z
2020-02-02T08:16:25Z,42.805,6.029,13.2957,4.59960,2469.97,2020-2-02T10:16:59Z
2020-02-02T08:19:28Z,42.805,6.029,13.2963,4.59958,2469.956,2020-2-02T10:20:02Z
2020-02-02T08:22:31Z,42.805,6.029,13.2961,4.59960,2469.993,2020-2-02T10:23:05Z
2020-02-02T08:25:34Z,42.805,6.029,13.2961,4.59961,2469.993,2020-2-02T10:26:08Z
2020-02-02T08:28:38Z,42.805,6.029,13.2958,4.59961,2469.97,2020-2-02T10:29:11Z
2020-02-02T08:31:41Z,42.805,6.029,13.2961,4.59960,2470.03,2020-2-02T10:32:15Z
2020-02-02T08:34:44Z,42.805,6.029,13.2958,4.59961,2469.97,2020-2-02T10:35:18Z
2020-02-02T08:37:47Z,42.805,6.029,13.2960,4.59960,2469.97,2020-2-02T10:38:21Z
2020-02-02T08:40:50Z,42.805,6.029,13.2958,4.59960,2469.984,2020-2-02T10:41:24Z
2020-02-02T08:43:54Z,42.805,6.029,13.2962,4.59961,2469.947,2020-2-02T10:44:28Z
2020-02-02T08:46:57Z,42.805,6.029,13.2959,4.59961,2469.97,2020-2-02T10:47:31Z
2020-02-02T08:50:00Z,42.805,6.029,13.2959,4.59960,2469.97,2020-2-02T10:50:34Z
2020-02-02T08:53:03Z,42.805,6.029,13.2961,4.59960,2469.984,2020-2-02T10:53:37Z
2020-02-02T08:56:06Z,42.805,6.029,13.2960,4.59960,2469.993,2020-2-02T10:56:40Z
2020-02-02T08:59:10Z,42.805,6.029,13.2958,4.59961,2470.007,2020-2-02T10:59:44Z
2020-02-02T09:02:13Z,42.805,6.029,13.2961,4.59961,2469.993,2020-2-02T11:02:47Z
2020-02-02T09:05:16Z,42.805,6.029,13.2961,4.59961,2470.007,2020-2-02T11:05:50Z
2020-02-02T09:08:19Z,42.805,6.029,13.2957,4.59961,2469.993,2020-2-02T11:08:53Z
2020-02-02T09:11:22Z,42.805,6.029,13.2959,4.59961,2470.03,2020-2-02T11:11:56Z
2020-02-02T09:14:26Z,42.805,6.029,13.2959,4.59961,2470.017,2020-2-02T11:15:00Z
2020-02-02T09:17:29Z,42.805,6.029,13.2963,4.59961,2469.993,2020-2-02T11:18:03Z
2020-02-02T09:20:32Z,42.805,6.029,13.2962,4.59961,2469.993,2020-2-02T11:21:06Z
2020-02-02T09:23:35Z,42.805,6.029,13.2959,4.59961,2470.007,2020-2-02T11:24:09Z
2020-02-02T09:26:38Z,42.805,6.029,13.2959,4.59962,2470.04,2020-2-02T11:27:12Z
2020-02-02T09:29:42Z,42.805,6.029,13.2961,4.59961,2470.017,2020-2-02T11:30:15Z
2020-02-02T09:32:45Z,42.805,6.029,13.2960,4.59962,2470.017,2020-2-02T11:33:19Z
2020-02-02T09:35:48Z,42.805,6.029,13.2964,4.59961,2470.003,2020-2-02T11:36:22Z
2020-02-02T09:38:51Z,42.805,6.029,13.2964,4.59961,2470.03,2020-2-02T11:39:25Z
2020-02-02T09:41:54Z,42.805,6.029,13.2960,4.59963,2470.017,2020-2-02T11:42:28Z
2020-02-02T09:44:58Z,42.805,6.029,13.2963,4.59961,2470.007,2020-2-02T11:45:31Z
2020-02-02T09:48:01Z,42.805,6.029,13.2960,4.59961,2470.017,2020-2-02T11:48:35Z
2020-02-02T09:51:04Z,42.805,6.029,13.2961,4.59961,2469.993,2020-2-02T11:51:38Z
2020-02-02T09:54:07Z,42.805,6.029,13.2958,4.59961,2470.017,2020-2-02T11:54:41Z
2020-02-02T09:57:10Z,42.805,6.029,13.2961,4.59961,2470.017,2020-2-02T11:57:44Z
2020-02-02T10:00:14Z,42.805,6.029,13.2959,4.59962,2470.017,2020-2-02T12:00:48Z
2020-02-02T10:03:17Z,42.805,6.029,13.2962,4.59961,2470.04,2020-2-02T12:03:51Z
2020-02-02T10:06:20Z,42.805,6.029,13.2962,4.59962,2470.04,2020-2-02T12:06:54Z
2020-02-02T10:09:23Z,42.805,6.029,13.2957,4.59961,2470.063,2020-2-02T12:09:57Z
2020-02-02T10:12:26Z,42.805,6.029,13.2961,4.59962,2470.017,2020-2-02T12:13:00Z
2020-02-02T10:15:29Z,42.805,6.029,13.2957,4.59961,2470.017,2020-2-02T12:16:03Z
2020-02-02T10:18:33Z,42.805,6.029,13.2958,4.59963,2470.077,2020-2-02T12:19:07Z
2020-02-02T10:21:36Z,42.805,6.029,13.2961,4.59961,2470.053,2020-2-02T12:22:10Z
2020-02-02T10:24:39Z,42.805,6.029,13.2962,4.59961,2470.077,2020-2-02T12:25:13Z
2020-02-02T10:27:42Z,42.805,6.029,13.2958,4.59962,2470.04,2020-2-02T12:28:16Z
2020-02-02T10:30:46Z,42.805,6.029,13.2957,4.59961,2470.017,2020-2-02T12:31:20Z
2020-02-02T10:33:49Z,42.805,6.029,13.2957,4.59961,2470.053,2020-2-02T12:34:23Z
2020-02-02T10:36:52Z,42.805,6.029,13.2956,4.59962,2470.053,2020-2-02T12:37:26Z
2020-02-02T10:39:55Z,42.805,6.029,13.2960,4.59962,2470.04,2020-2-02T12:40:29Z
2020-02-02T10:42:59Z,42.805,6.029,13.2964,4.59962,2470.017,2020-2-02T12:43:32Z
2020-02-02T10:46:02Z,42.805,6.029,13.2963,4.59962,2470.063,2020-2-02T12:46:36Z
2020-02-02T10:49:05Z,42.805,6.029,13.2963,4.59960,2470.063,2020-2-02T12:49:39Z
2020-02-02T10:52:08Z,42.805,6.029,13.2964,4.59961,2470.053,2020-2-02T12:52:42Z
2020-02-02T10:55:11Z,42.805,6.029,13.2963,4.59961,2470.063,2020-2-02T12:55:45Z
2020-02-02T10:58:14Z,42.805,6.029,13.2957,4.59961,2470.04,2020-2-02T12:58:48Z
2020-02-02T11:01:18Z,42.805,6.029,13.2958,4.59962,2470.063,2020-2-02T13:01:52Z
2020-02-02T11:04:21Z,42.805,6.029,13.2960,4.59961,2470.063,2020-2-02T13:04:55Z
2020-02-02T11:07:24Z,42.805,6.029,13.2957,4.59962,2470.063,2020-2-02T13:07:58Z
2020-02-02T11:10:27Z,42.805,6.029,13.2955,4.59961,2470.063,2020-2-02T13:11:01Z
2020-02-02T11:13:31Z,42.805,6.029,13.2963,4.59962,2470.053,2020-2-02T13:14:04Z
2020-02-02T11:16:34Z,42.805,6.029,13.2958,4.59961,2470.053,2020-2-02T13:17:08Z
2020-02-02T11:19:37Z,42.805,6.029,13.2960,4.59961,2470.063,2020-2-02T13:20:11Z
2020-02-02T11:22:40Z,42.805,6.029,13.2958,4.59961,2470.063,2020-2-02T13:23:14Z
2020-02-02T11:25:43Z,42.805,6.029,13.2958,4.59961,2470.077,2020-2-02T13:26:17Z
2020-02-02T11:28:47Z,42.805,6.029,13.2961,4.59961,2470.124,2020-2-02T13:29:21Z
2020-02-02T11:31:50Z,42.805,6.029,13.2962,4.59961,2470.053,2020-2-02T13:32:24Z
2020-02-02T11:34:53Z,42.805,6.029,13.2961,4.59961,2470.063,2020-2-02T13:35:27Z
2020-02-02T11:37:56Z,42.805,6.029,13.2959,4.59961,2470.04,2020-2-02T13:38:30Z
2020-02-02T11:41:00Z,42.805,6.029,13.2956,4.59961,2470.04,2020-2-02T13:41:33Z
2020-02-02T11:44:03Z,42.805,6.029,13.2960,4.59961,2470.063,2020-2-02T13:44:37Z
2020-02-02T11:47:06Z,42.805,6.029,13.2957,4.59962,2470.077,2020-2-02T13:47:40Z
2020-02-02T11:50:09Z,42.805,6.029,13.2961,4.59962,2470.087,2020-2-02T13:50:43Z
2020-02-02T11:53:12Z,42.805,6.029,13.2960,4.59963,2470.04,2020-2-02T13:53:46Z
2020-02-02T11:56:16Z,42.805,6.029,13.2958,4.59962,2470.063,2020-2-02T13:56:49Z
2020-02-02T11:59:19Z,42.805,6.029,13.2960,4.59961,2470.1,2020-2-02T13:59:53Z
2020-02-02T12:02:22Z,42.805,6.029,13.2961,4.59961,2470.077,2020-2-02T14:02:56Z
2020-02-02T12:05:25Z,42.805,6.029,13.2960,4.59961,2470.087,2020-2-02T14:05:59Z
2020-02-02T12:08:28Z,42.805,6.029,13.2960,4.59962,2470.063,2020-2-02T14:09:02Z
2020-02-02T12:11:32Z,42.805,6.029,13.2962,4.59961,2470.053,2020-2-02T14:12:05Z
2020-02-02T12:14:35Z,42.805,6.029,13.2961,4.59961,2470.04,2020-2-02T14:15:09Z
2020-02-02T12:17:38Z,42.805,6.029,13.2959,4.59962,2470.077,2020-2-02T14:18:12Z
2020-02-02T12:20:41Z,42.805,6.029,13.2962,4.59961,2470.087,2020-2-02T14:21:15Z
2020-02-02T12:23:44Z,42.805,6.029,13.2957,4.59962,2470.04,2020-2-02T14:24:18Z
2020-02-02T12:26:48Z,42.805,6.029,13.2961,4.59961,2470.077,2020-2-02T14:27:21Z
2020-02-02T12:29:51Z,42.805,6.029,13.2961,4.59961,2470.063,2020-2-02T14:30:25Z
2020-02-02T12:32:54Z,42.805,6.029,13.2963,4.59961,2470.063,2020-2-02T14:33:28Z
2020-02-02T12:35:57Z,42.805,6.029,13.2965,4.59961,2470.063,2020-2-02T14:36:31Z
2020-02-02T12:39:00Z,42.805,6.029,13.2957,4.59962,2470.077,2020-2-02T14:39:34Z
2020-02-02T12:42:04Z,42.805,6.029,13.2958,4.59962,2470.063,2020-2-02T14:42:37Z
2020-02-02T12:45:07Z,42.805,6.029,13.2961,4.59961,2470.063,2020-2-02T14:45:41Z
2020-02-02T12:48:10Z,42.805,6.029,13.2959,4.59961,2470.087,2020-2-02T14:48:44Z
2020-02-02T12:51:13Z,42.805,6.029,13.2958,4.59961,2470.04,2020-2-02T14:51:47Z
2020-02-02T12:54:16Z,42.805,6.029,13.2959,4.59962,2470.063,2020-2-02T14:54:50Z
2020-02-02T12:57:20Z,42.805,6.029,13.2960,4.59961,2470.077,2020-2-02T14:57:53Z
2020-02-02T13:00:23Z,42.805,6.029,13.2959,4.59962,2470.063,2020-2-02T15:00:57Z
2020-02-02T13:03:26Z,42.805,6.029,13.2959,4.59961,2470.077,2020-2-02T15:04:00Z
2020-02-02T13:06:29Z,42.805,6.029,13.2960,4.59961,2470.053,2020-2-02T15:07:03Z
2020-02-02T13:09:32Z,42.805,6.029,13.2960,4.59961,2470.04,2020-2-02T15:10:06Z
2020-02-02T13:12:35Z,42.805,6.029,13.2960,4.59961,2470.077,2020-2-02T15:13:09Z
2020-02-02T13:15:39Z,42.805,6.029,13.2963,4.59961,2470.063,2020-2-02T15:16:13Z
2020-02-02T13:18:42Z,42.805,6.029,13.2961,4.59962,2470.063,2020-2-02T15:19:16Z
2020-02-02T13:21:45Z,42.805,6.029,13.2960,4.59961,2470.063,2020-2-02T15:22:19Z
2020-02-02T13:24:48Z,42.805,6.029,13.2958,4.59961,2470.063,2020-2-02T15:25:22Z
2020-02-02T13:27:51Z,42.805,6.029,13.2958,4.59962,2470.017,2020-2-02T15:28:25Z
2020-02-02T13:30:55Z,42.805,6.029,13.2965,4.59961,2470.049,2020-2-02T15:31:29Z
2020-02-02T13:33:58Z,42.805,6.029,13.2959,4.59962,2470.063,2020-2-02T15:34:32Z
2020-02-02T13:37:01Z,42.805,6.029,13.2962,4.59962,2470.063,2020-2-02T15:37:35Z
2020-02-02T13:40:04Z,42.805,6.029,13.2961,4.59962,2470.017,2020-2-02T15:40:38Z
2020-02-02T13:43:08Z,42.805,6.029,13.2958,4.59961,2470.04,2020-2-02T15:43:41Z
2020-02-02T13:46:11Z,42.805,6.029,13.2961,4.59961,2470.04,2020-2-02T15:46:45Z
2020-02-02T13:49:14Z,42.805,6.029,13.2961,4.59961,2470.049,2020-2-02T15:49:48Z
2020-02-02T13:52:17Z,42.805,6.029,13.2963,4.59961,2470.03,2020-2-02T15:52:51Z
2020-02-02T13:55:20Z,42.805,6.029,13.2965,4.59961,2470.077,2020-2-02T15:55:54Z
2020-02-02T13:58:24Z,42.805,6.029,13.2961,4.59961,2470.053,2020-2-02T15:58:57Z
2020-02-02T14:01:27Z,42.805,6.029,13.2962,4.59961,2470.04,2020-2-02T16:02:01Z
2020-02-02T14:04:30Z,42.805,6.029,13.2961,4.59961,2470.053,2020-2-02T16:05:04Z
2020-02-02T14:07:33Z,42.805,6.029,13.2959,4.59961,2470.04,2020-2-02T16:08:07Z
2020-02-02T14:10:36Z,42.805,6.029,13.2962,4.59962,2470.03,2020-2-02T16:11:10Z
2020-02-02T14:13:40Z,42.805,6.029,13.2959,4.59961,2470.04,2020-2-02T16:14:13Z
2020-02-02T14:16:43Z,42.805,6.029,13.2959,4.59961,2470.04,2020-2-02T16:17:17Z
2020-02-02T14:19:46Z,42.805,6.029,13.2958,4.59963,2470.04,2020-2-02T16:20:20Z
2020-02-02T14:22:49Z,42.805,6.029,13.2961,4.59962,2470.04,2020-2-02T16:23:23Z
2020-02-02T14:25:52Z,42.805,6.029,13.2960,4.59961,2470.017,2020-2-02T16:26:26Z
2020-02-02T14:28:56Z,42.805,6.029,13.2958,4.59961,2470.053,2020-2-02T16:29:29Z
2020-02-02T14:31:59Z,42.805,6.029,13.2961,4.59961,2469.993,2020-2-02T16:32:33Z
2020-02-02T14:35:02Z,42.805,6.029,13.2961,4.59961,2470.077,2020-2-02T16:35:36Z
2020-02-02T14:38:05Z,42.805,6.029,13.2963,4.59962,2470.04,2020-2-02T16:38:39Z
2020-02-02T14:41:08Z,42.805,6.029,13.2960,4.59961,2470.04,2020-2-02T16:41:42Z
2020-02-02T14:44:12Z,42.805,6.029,13.2959,4.59961,2470.053,2020-2-02T16:44:46Z
2020-02-02T14:47:15Z,42.805,6.029,13.2961,4.59961,2470.03,2020-2-02T16:47:49Z
2020-02-02T14:50:18Z,42.805,6.029,13.2961,4.59961,2470.077,2020-2-02T16:50:52Z
2020-02-02T14:53:21Z,42.805,6.029,13.2964,4.59961,2470.03,2020-2-02T16:53:55Z
2020-02-02T14:56:24Z,42.805,6.029,13.2962,4.59961,2470.04,2020-2-02T16:56:58Z
2020-02-02T14:59:28Z,42.805,6.029,13.2961,4.59961,2470.053,2020-2-02T17:00:02Z
2020-02-02T15:02:31Z,42.805,6.029,13.2957,4.59961,2470.017,2020-2-02T17:03:05Z
2020-02-02T15:05:34Z,42.805,6.029,13.2960,4.59962,2469.993,2020-2-02T17:06:08Z
2020-02-02T15:08:37Z,42.805,6.029,13.2961,4.59961,2470.017,2020-2-02T17:09:11Z
2020-02-02T15:11:40Z,42.805,6.029,13.2957,4.59961,2470.053,2020-2-02T17:12:14Z
2020-02-02T15:14:44Z,42.805,6.029,13.2961,4.59961,2470.03,2020-2-02T17:15:17Z